Cloud_Cover
0 0 0 0 0 0 0 0 0 0 0 0 0 0 0 0 0 0 0 0 0 0 0 0 0 0 0 0 0 0 4 6 37 26 5 5 9 16 16 97 100 99 100 100 100 100 100 100 98
0 0 0 0 0 0 0 0 0 0 0 0 0 0 0 0 0 0 0 0 0 0 0 1 0 0 0 0 0 0 0 3 5 5 5 10 8 5 5 6 21 28 96 100 100 100 100 100 100
0 0 0 0 0 0 0 0 0 0 0 0 0 0 0 0 0 0 0 0 0 0 0 0 0 0 0 0 0 0 0 0 2 0 3 9 6 5 8 26 33 29 42 87 100 95 75 100 100
0 0 0 0 0 0 0 0 0 0 0 0 0 0 0 0 0 0 0 0 0 0 0 0 0 0 0 0 0 0 0 0 5 2 9 1 7 3 5 5 5 97 41 96 100 99 100 99 100
4 0 0 0 0 0 0 0 0 0 0 3 0 0 0 0 0 0 0 0 0 0 0 4 0 0 0 0 0 0 0 0 0 0 0 2 13 0 0 87 100 100 100 70 30 74 100 100 83
5 1 0 0 0 0 0 1 0 2 0 2 0 0 0 0 0 0 0 0 0 0 0 1 16 0 0 0 0 0 0 0 0 0 0 2 0 0 0 13 100 100 100 43 50 100 99 100 100
4 2 0 0 0 0 0 0 0 0 0 74 3 0 0 0 0 0 0 0 0 0 0 5 30 7 16 0 0 0 0 0 0 0 0 0 0 0 0 0 26 22 100 67 18 19 100 96 99
0 0 0 0 0 0 0 0 0 0 0 0 5 0 0 0 0 0 0 0 0 0 0 22 25 29 38 25 1 0 0 0 0 0 0 0 1 0 0 0 0 0 89 10 4 0 2 16 100
0 0 0 0 0 0 0 0 0 0 0 0 0 12 2 0 0 0 0 0 0 0 0 18 38 38 36 29 6 66 14 62 78 63 2 3 69 11 0 0 0 0 9 0 0 0 0 0 0
0 0 0 0 0 0 0 0 0 0 0 0 0 0 0 0 0 0 0 0 0 0 0 0 20 34 38 27 4 4 96 100 100 100 66 46 76 90 14 0 0 0 0 0 0 0 0 0 0
0 0 0 0 0 0 0 0 5 3 0 0 0 0 0 0 0 0 0 0 0 0 0 0 0 0 16 30 34 38 32 97 100 42 65 22 95 100 100 91 38 0 0 0 0 0 0 0 0
0 0 0 0 0 0 0 0 0 3 5 0 0 0 0 0 0 0 0 0 0 0 0 0 0 0 3 8 47 50 39 66 67 30 0 80 100 100 100 100 100 70 0 0 0 0 0 0 0
5 0 0 0 0 0 0 0 0 2 5 5 0 0 0 0 0 0 0 0 0 0 0 0 0 0 0 10 20 37 51 90 83 22 2 0 63 100 100 100 100 45 0 0 0 0 0 0 0
96 96 96 15 10 5 2 0 0 4 98 5 0 0 0 0 0 0 0 0 0 0 0 0 0 0 0 0 3 9 39 41 32 15 6 0 0 61 100 100 100 100 0 0 0 0 0 0 0
70 99 100 86 64 36 48 90 5 5 5 2 0 0 3 3 0 0 0 0 0 0 0 0 0 0 0 0 0 6 10 17 26 17 0 9 28 45 24 92 100 100 49 0 0 0 0 0 0
72 100 100 100 68 13 14 90 100 20 4 19 0 0 3 1 4 0 0 0 0 4 0 0 0 0 3 2 1 0 0 0 2 9 31 69 99 100 100 100 100 100 100 11 0 0 0 0 0
5 7 22 89 69 92 90 100 98 99 64 4 1 5 5 3 0 0 0 0 5 30 37 3 0 0 0 0 0 0 4 4 2 1 29 100 100 100 100 100 100 100 100 81 12 0 0 0 0
7 30 7 30 44 13 22 91 100 89 98 100 100 100 90 55 15 28 7 5 5 18 100 100 47 5 10 7 2 0 0 0 5 16 75 100 100 100 100 100 100 100 100 100 99 7 0 0 0
5 25 52 52 100 75 100 100 98 60 100 100 100 100 100 100 100 100 100 100 5 5 13 100 100 98 42 73 53 25 1 6 34 100 100 100 100 100 100 100 100 100 100 100 100 100 21 0 0
5 5 5 5 7 23 56 99 100 46 52 54 66 97 100 100 100 100 100 100 100 100 56 13 61 100 100 100 100 98 71 17 5 88 100 100 100 100 100 100 100 100 100 100 100 100 100 62 0
5 5 0 0 0 2 5 5 15 4 5 22 75 24 66 70 100 99 96 100 100 100 100 100 100 100 100 100 100 91 58 99 100 59 98 100 100 100 100 100 100 100 100 100 100 100 100 100 96
66 5 4 4 0 4 4 1 54 2 5 5 60 100 99 75 87 94 100 100 94 27 96 100 100 100 100 100 100 100 100 72 15 87 32 40 98 85 94 100 100 100 100 100 100 100 100 100 100
34 5 14 71 91 59 42 4 37 74 52 91 32 51 98 82 69 89 98 100 94 99 100 100 100 75 21 100 99 100 100 100 100 100 100 92 48 13 5 47 14 8 87 100 100 100 100 100 100
17 64 33 5 5 6 48 5 43 77 34 5 7 5 5 2 5 5 6 7 62 41 59 33 55 95 100 84 84 81 83 81 100 100 100 100 100 99 91 31 7 5 6 75 80 100 100 100 100
100 100 61 45 22 9 14 19 100 97 49 5 6 10 5 5 6 34 6 5 51 76 10 100 87 18 14 100 92 66 100 100 97 96 100 100 100 100 100 97 54 18 5 6 80 100 77 100 100
82 99 96 22 16 41 79 54 100 80 21 40 5 5 4 56 34 44 56 78 51 36 3 4 36 5 5 61 100 89 37 61 100 100 100 100 95 74 78 91 100 100 57 5 5 62 29 7 51
100 20 6 22 7 7 5 57 19 5 7 5 3 4 71 53 99 97 19 5 5 5 5 5 15 38 36 5 4 0 5 30 94 95 100 100 100 100 100 81 33 6 41 89 84 5 5 31 80
96 65 57 43 25 83 5 6 26 76 18 98 31 80 7 5 5 5 5 5 20 40 80 67 89 44 52 62 32 5 5 4 14 70 64 72 38 26 24 86 100 100 31 8 15 79 83 12 53
98 69 94 93 12 100 8 5 5 90 98 79 92 38 7 20 5 5 30 36 66 86 100 86 82 5 5 5 5 5 5 5 5 13 59 25 42 85 74 60 100 100 100 100 100 83 86 43 6
100 72 64 99 60 89 87 6 93 100 71 63 71 5 5 6 23 22 16 90 100 100 83 10 0 0 0 0 0 0 0 0 0 0 0 2 68 100 76 64 99 99 99 100 67 97 90 100 100